When you browse on this site, cookies collect data to enhance your experience and personalize the content and advertising you see.
Visit our Privacy Policy to learn more. By continuing to use the site, you agree to this use of cookies and data.
  • In Schweiz
  • Länderverzeichnis
  • Für 7 Tage
  • Wassertemperatur
  • Satellitenkarten
  • Wetterkarte
  • Widgets
  • user-avatar
    Anmelden

    Stündliche Wetter Yantai

    Heute, 26 Mai, Sonntag

    Zeit Temperatur Niederschläge Wind Luftdruck Luftfeuchtigkeit
    00:00 +21°C° 0 mm 6 m/S 754 mmHg 85%
    01:00 +21°C° 0 mm 6 m/S 754 mmHg 86%
    02:00 +21°C° 0 mm 5 m/S 754 mmHg 86%
    03:00 +20°C° 0 mm 5 m/S 754 mmHg 87%
    04:00 +20°C° 0 mm 6 m/S 754 mmHg 87%
    05:00 +20°C° 0 mm 6 m/S 754 mmHg 87%
    06:00 +21°C° 0 mm 6 m/S 754 mmHg 84%
    07:00 +22°C° 0 mm 6 m/S 754 mmHg 81%
    08:00 +23°C° 0 mm 5 m/S 754 mmHg 75%
    09:00 +24°C° 0 mm 6 m/S 753 mmHg 74%
    10:00 +24°C° 0 mm 7 m/S 753 mmHg 72%
    11:00 +26°C° 0 mm 8 m/S 753 mmHg 70%
    12:00 +24°C° 0 mm 9 m/S 753 mmHg 72%
    13:00 +23°C° 0 mm 9 m/S 752 mmHg 75%
    14:00 +22°C° 0 mm 10 m/S 752 mmHg 77%
    15:00 +21°C° 0 mm 10 m/S 751 mmHg 79%
    16:00 +21°C° 0 mm 10 m/S 751 mmHg 80%
    17:00 +21°C° 0 mm 10 m/S 750 mmHg 82%
    18:00 +19°C° 0 mm 11 m/S 750 mmHg 81%
    19:00 +19°C° 0 mm 11 m/S 750 mmHg 80%
    20:00 +19°C° 0 mm 11 m/S 750 mmHg 80%
    21:00 +19°C° 0 mm 10 m/S 750 mmHg 81%
    22:00 +19°C° 0 mm 10 m/S 749 mmHg 82%
    23:00 +18°C° 0 mm 9 m/S 749 mmHg 83%

    Morgen, 27 Mai, Montag

    Zeit Temperatur Niederschläge Wind Luftdruck Luftfeuchtigkeit
    00:00 +20°C° 0.1 mm 7 m/S 749 mmHg 85%
    01:00 +20°C° 0.1 mm 5 m/S 749 mmHg 86%
    02:00 +20°C° 0.1 mm 3 m/S 749 mmHg 87%
    03:00 +19°C° 0 mm 5 m/S 749 mmHg 87%
    04:00 +16°C° 0 mm 8 m/S 750 mmHg 87%
    05:00 +14°C° 0 mm 10 m/S 750 mmHg 86%
    06:00 +14°C° 0 mm 11 m/S 751 mmHg 83%
    07:00 +14°C° 0 mm 11 m/S 751 mmHg 79%
    08:00 +13°C° 0 mm 12 m/S 752 mmHg 76%
    09:00 +14°C° 0 mm 12 m/S 753 mmHg 67%
    10:00 +17°C° 0 mm 13 m/S 754 mmHg 59%
    11:00 +18°C° 0 mm 13 m/S 755 mmHg 51%
    12:00 +18°C° 0 mm 12 m/S 755 mmHg 48%
    13:00 +19°C° 0 mm 12 m/S 755 mmHg 45%
    14:00 +21°C° 0 mm 11 m/S 756 mmHg 42%
    15:00 +21°C° 0 mm 10 m/S 756 mmHg 41%
    16:00 +21°C° 0 mm 9 m/S 756 mmHg 40%
    17:00 +21°C° 0 mm 9 m/S 756 mmHg 39%
    18:00 +20°C° 0 mm 7 m/S 757 mmHg 42%
    19:00 +19°C° 0 mm 6 m/S 757 mmHg 46%
    20:00 +17°C° 0 mm 5 m/S 757 mmHg 49%
    21:00 +16°C° 0 mm 5 m/S 758 mmHg 51%
    22:00 +17°C° 0 mm 4 m/S 758 mmHg 52%
    23:00 +17°C° 0 mm 4 m/S 759 mmHg 53%

    übermorgen, 28 Mai, Dienstag

    Zeit Temperatur Niederschläge Wind Luftdruck Luftfeuchtigkeit
    00:00 +17°C° 0 mm 4 m/S 759 mmHg 53%
    01:00 +16°C° 0 mm 3 m/S 759 mmHg 53%
    02:00 +16°C° 0 mm 3 m/S 759 mmHg 52%
    03:00 +16°C° 0 mm 3 m/S 759 mmHg 51%
    04:00 +16°C° 0 mm 3 m/S 759 mmHg 50%
    05:00 +16°C° 0 mm 3 m/S 759 mmHg 50%
    06:00 +18°C° 0 mm 4 m/S 759 mmHg 43%
    07:00 +21°C° 0 mm 4 m/S 759 mmHg 36%
    08:00 +23°C° 0 mm 4 m/S 759 mmHg 30%
    09:00 +26°C° 0 mm 5 m/S 759 mmHg 26%
    10:00 +28°C° 0 mm 7 m/S 759 mmHg 22%
    11:00 +29°C° 0 mm 8 m/S 759 mmHg 18%
    12:00 +29°C° 0 mm 8 m/S 758 mmHg 18%
    13:00 +31°C° 0 mm 8 m/S 758 mmHg 18%
    14:00 +31°C° 0 mm 8 m/S 758 mmHg 18%
    15:00 +30°C° 0 mm 7 m/S 757 mmHg 18%
    16:00 +29°C° 0 mm 6 m/S 757 mmHg 18%
    17:00 +29°C° 0 mm 5 m/S 757 mmHg 18%
    18:00 +27°C° 0 mm 4 m/S 757 mmHg 20%
    19:00 +25°C° 0 mm 3 m/S 757 mmHg 23%
    20:00 +23°C° 0 mm 2 m/S 757 mmHg 25%
    21:00 +23°C° 0 mm 2 m/S 757 mmHg 23%
    22:00 +22°C° 0 mm 3 m/S 757 mmHg 22%
    23:00 +21°C° 0 mm 4 m/S 757 mmHg 21%

    29 Mai, Mittwoch

    Zeit Temperatur Niederschläge Wind Luftdruck Luftfeuchtigkeit
    00:00 +21°C° 0 mm 4 m/S 756 mmHg 24%
    01:00 +21°C° 0 mm 4 m/S 756 mmHg 26%
    02:00 +21°C° 0 mm 5 m/S 755 mmHg 29%
    03:00 +20°C° 0 mm 5 m/S 755 mmHg 29%
    04:00 +20°C° 0 mm 5 m/S 755 mmHg 29%
    05:00 +20°C° 0 mm 5 m/S 755 mmHg 29%
    06:00 +23°C° 0 mm 6 m/S 755 mmHg 27%
    07:00 +26°C° 0 mm 6 m/S 756 mmHg 25%
    08:00 +28°C° 0 mm 6 m/S 756 mmHg 24%
    09:00 +30°C° 0 mm 6 m/S 756 mmHg 22%
    10:00 +32°C° 0 mm 6 m/S 756 mmHg 20%
    11:00 +34°C° 0 mm 6 m/S 756 mmHg 18%
    12:00 +35°C° 0 mm 5 m/S 755 mmHg 16%
    13:00 +36°C° 0 mm 5 m/S 755 mmHg 15%
    14:00 +37°C° 0 mm 4 m/S 754 mmHg 14%
    15:00 +36°C° 0 mm 4 m/S 754 mmHg 15%
    16:00 +36°C° 0 mm 4 m/S 753 mmHg 16%
    17:00 +35°C° 0 mm 3 m/S 753 mmHg 16%
    18:00 +33°C° 0 mm 4 m/S 753 mmHg 19%
    19:00 +30°C° 0 mm 5 m/S 753 mmHg 22%
    20:00 +28°C° 0 mm 6 m/S 753 mmHg 25%
    21:00 +27°C° 0 mm 6 m/S 754 mmHg 27%
    22:00 +26°C° 0 mm 7 m/S 754 mmHg 29%
    23:00 +26°C° 0 mm 7 m/S 754 mmHg 31%

    30 Mai, Donnerstag

    Zeit Temperatur Niederschläge Wind Luftdruck Luftfeuchtigkeit
    00:00 +24°C° 0 mm 7 m/S 754 mmHg 33%
    01:00 +24°C° 0 mm 7 m/S 753 mmHg 36%
    02:00 +23°C° 0 mm 6 m/S 753 mmHg 38%
    03:00 +23°C° 0 mm 6 m/S 753 mmHg 38%
    04:00 +23°C° 0 mm 6 m/S 753 mmHg 38%
    05:00 +23°C° 0 mm 6 m/S 753 mmHg 38%
    06:00 +24°C° 0 mm 7 m/S 753 mmHg 35%
    07:00 +24°C° 0 mm 7 m/S 753 mmHg 33%
    08:00 +26°C° 0 mm 7 m/S 754 mmHg 31%
    09:00 +27°C° 0 mm 7 m/S 753 mmHg 30%
    10:00 +28°C° 0 mm 7 m/S 753 mmHg 29%
    11:00 +28°C° 0 mm 7 m/S 753 mmHg 29%
    12:00 +29°C° 0 mm 6 m/S 753 mmHg 27%
    13:00 +32°C° 0 mm 4 m/S 753 mmHg 25%
    14:00 +33°C° 0 mm 3 m/S 752 mmHg 23%
    15:00 +31°C° 0 mm 3 m/S 752 mmHg 26%
    16:00 +29°C° 0 mm 3 m/S 752 mmHg 30%
    17:00 +28°C° 0 mm 3 m/S 752 mmHg 34%
    18:00 +26°C° 0 mm 3 m/S 752 mmHg 38%
    19:00 +23°C° 0 mm 4 m/S 753 mmHg 43%
    20:00 +21°C° 0 mm 4 m/S 753 mmHg 48%
    21:00 +21°C° 0 mm 4 m/S 754 mmHg 50%
    22:00 +20°C° 0 mm 3 m/S 754 mmHg 51%
    23:00 +20°C° 0 mm 3 m/S 754 mmHg 53%

    31 Mai, Freitag

    Zeit Temperatur Niederschläge Wind Luftdruck Luftfeuchtigkeit
    00:00 +19°C° 0 mm 2 m/S 754 mmHg 57%
    01:00 +19°C° 0 mm 1 m/S 754 mmHg 60%
    02:00 +16°C° 0 mm 0 m/S 754 mmHg 64%
    03:00 +18°C° 0 mm 1 m/S 754 mmHg 61%
    04:00 +18°C° 0 mm 1 m/S 755 mmHg 59%
    05:00 +18°C° 0 mm 1 m/S 755 mmHg 57%
    06:00 +19°C° 0 mm 2 m/S 755 mmHg 49%
    07:00 +21°C° 0 mm 2 m/S 756 mmHg 41%
    08:00 +24°C° 0 mm 3 m/S 756 mmHg 33%
    09:00 +26°C° 0 mm 3 m/S 756 mmHg 29%
    10:00 +27°C° 0 mm 2 m/S 756 mmHg 25%
    11:00 +29°C° 0 mm 2 m/S 756 mmHg 20%
    12:00 +30°C° 0 mm 3 m/S 755 mmHg 19%
    13:00 +30°C° 0 mm 3 m/S 755 mmHg 18%
    14:00 +31°C° 0 mm 3 m/S 755 mmHg 17%
    15:00 +30°C° 0 mm 3 m/S 754 mmHg 19%
    16:00 +30°C° 0 mm 2 m/S 754 mmHg 20%
    17:00 +29°C° 0 mm 2 m/S 754 mmHg 21%
    18:00 +27°C° 0 mm 3 m/S 754 mmHg 26%
    19:00 +25°C° 0 mm 3 m/S 754 mmHg 31%
    20:00 +22°C° 0 mm 4 m/S 754 mmHg 36%
    21:00 +21°C° 0 mm 5 m/S 754 mmHg 39%
    22:00 +20°C° 0 mm 5 m/S 754 mmHg 42%
    23:00 +20°C° 0 mm 6 m/S 754 mmHg 45%
    Mehr zeigen